Temperature
20 20 19 19 19 19 19 19 19 19 19 19 19 19 19 19 18 18 18 18 18 18 18 18 18 18 18 18 18 18 18 18 18 18 18 18 18 17 17 17 17 17 17
20 20 20 19 19 19 19 19 19 19 19 18 18 18 18 18 18 18 18 18 18 18 18 18 18 18 18 18 18 18 18 18 18 18 18 18 18 17 17 17 17 17 17
20 20 20 19 19 19 19 19 19 19 18 18 18 18 18 18 18 18 18 18 18 18 18 18 18 18 18 18 18 18 18 18 18 18 17 17 17 17 17 17 17 17 17
20 19 20 20 19 19 19 19 18 18 18 18 18 18 18 18 18 18 18 18 18 18 18 18 18 18 18 18 18 18 18 18 17 17 17 17 17 17 17 17 17 17 17
20 20 20 20 19 19 19 19 19 18 18 18 18 18 18 18 18 18 18 18 18 18 18 18 18 18 18 18 18 18 18 18 17 17 17 17 17 17 17 17 17 17 17
20 20 20 20 19 19 19 19 19 18 18 18 18 18 18 18 18 18 18 18 18 18 18 18 18 18 18 18 18 18 18 18 17 17 17 17 17 17 17 17 17 17 17
20 20 21 20 20 19 19 19 19 18 18 18 18 18 18 18 18 18 18 18 18 18 18 18 18 18 18 18 18 18 18 18 18 17 17 17 17 17 17 17 17 17 17
21 20 21 20 20 19 19 19 19 19 18 18 18 18 18 18 18 18 18 18 18 18 18 18 18 18 18 18 18 18 18 18 17 17 17 18 18 18 17 17 17 17 17
21 20 20 20 20 20 19 19 19 19 18 18 18 18 18 18 18 18 18 18 18 18 18 18 18 18 18 18 18 18 18 18 18 18 18 18 18 18 17 17 17 17 17
22 21 20 19 19 19 19 19 19 19 18 18 18 18 18 18 18 18 18 18 18 18 18 18 18 18 18 18 18 18 18 18 18 18 18 18 18 18 18 17 17 17 17
22 21 20 20 19 19 19 19 19 19 19 18 18 18 18 18 18 18 18 18 18 18 18 18 18 18 18 18 18 18 18 18 18 18 18 18 18 18 18 17 17 17 17
22 21 21 20 20 19 19 19 19 18 18 18 18 18 18 18 17 17 18 18 18 18 18 18 18 18 18 18 18 18 18 18 18 18 18 18 18 18 18 17 17 17 17
22 21 21 20 20 20 19 19 19 18 18 18 18 18 18 18 18 18 18 18 18 18 18 18 18 18 18 18 18 18 18 18 18 18 18 18 18 18 18 17 17 17 17
22 21 21 20 20 20 19 19 19 19 19 19 18 18 18 18 18 18 18 18 18 18 18 18 18 18 18 18 18 18 18 18 18 18 18 18 18 18 18 17 17 17 17
22 21 21 20 20 20 20 19 19 19 19 19 18 18 18 18 18 18 18 18 18 18 18 18 18 18 18 18 18 18 18 18 18 18 18 18 18 18 18 18 17 17 17
22 21 21 20 20 20 20 20 19 19 19 19 19 18 18 18 18 18 18 18 18 18 18 18 18 18 18 18 18 18 18 18 18 18 18 18 18 18 18 18 17 17 17
21 21 21 20 20 20 19 20 19 19 19 19 19 18 18 18 18 18 18 18 18 18 18 18 18 18 18 18 18 18 18 18 18 18 18 18 18 18 18 18 18 17 17
21 21 21 20 20 20 20 19 19 19 19 19 19 19 18 18 18 18 18 18 18 18 18 18 18 18 18 18 18 18 18 18 18 18 18 18 18 18 18 18 18 17 17
22 21 21 20 20 20 20 19 19 19 19 19 19 19 18 18 18 18 18 18 18 18 18 18 18 18 18 18 18 18 18 18 18 18 18 18 18 18 18 18 17 17 17
22 21 21 20 20 20 19 19 19 19 19 19 19 19 18 18 18 18 18 18 18 18 18 18 18 18 18 18 18 18 18 18 18 18 18 18 18 18 17 17 17 17 17
22 21 21 20 20 20 20 20 19 19 19 19 19 19 19 18 18 19 18 18 18 18 18 18 18 18 18 18 18 18 18 18 18 18 18 18 18 18 18 18 17 17 17
22 21 21 21 20 20 20 20 20 19 19 19 19 19 19 18 18 18 19 18 18 18 18 18 18 18 18 18 18 18 18 18 18 18 18 18 18 18 18 18 17 17 17
22 21 21 21 20 20 20 20 19 19 19 19 19 19 19 18 18 18 18 18 18 18 18 18 18 18 18 18 18 18 18 18 18 18 18 18 18 18 18 18 17 17 17
22 22 21 21 20 20 20 20 19 19 19 19 19 19 19 18 18 18 18 18 18 18 18 18 18 18 18 18 18 18 18 18 18 18 18 18 18 18 18 17 17 17 17
23 22 21 21 20 20 20 20 19 19 19 19 19 19 19 19 18 18 18 18 18 18 18 18 18 18 18 18 18 18 18 18 18 18 17 18 18 17 17 17 17 17 17
23 22 21 21 21 20 20 20 20 19 19 19 19 19 19 19 18 18 18 18 18 18 18 18 18 18 18 18 18 18 18 18 18 18 17 17 17 17 17 17 17 17 17
Wind_Speed
12 13 13 12 12 13 14 13 14 14 14 14 15 15 15 15 15 15 15 15 15 14 14 14 13 13 13 13 13 13 14 14 14 15 15 15 14 13 12 13 14 14 15
16 15 14 13 13 13 13 13 13 13 14 14 14 14 14 14 14 14 14 14 14 14 14 13 13 13 13 12 12 12 12 13 13 14 14 14 13 11 10 11 13 14 14
17 16 15 13 13 13 13 13 13 13 13 13 13 13 13 13 13 13 13 13 13 13 13 13 12 12 12 12 11 11 11 11 12 13 13 12 11 11 12 14 16 14 14
17 16 15 14 13 13 13 13 13 13 13 13 12 12 12 12 12 12 13 12 12 12 12 12 11 11 10 10 10 10 9 9 9 10 9 11 11 12 13 14 14 13 14
18 18 16 15 14 13 13 13 12 12 12 12 12 12 11 11 11 12 12 12 12 11 12 11 11 10 10 10 9 8 7 7 7 7 9 13 13 12 13 13 13 13 13
18 18 16 15 14 13 13 12 12 12 11 11 11 11 11 10 10 11 11 11 11 11 11 10 10 10 9 9 8 7 5 4 4 6 11 13 13 12 13 13 13 12 12
18 18 17 15 14 13 12 12 11 11 11 11 11 11 10 10 9 10 10 11 11 11 10 10 9 9 8 8 7 6 4 3 4 8 11 13 13 13 12 12 12 12 12
18 18 17 16 14 13 12 11 10 10 10 10 10 10 10 9 9 9 10 10 10 10 10 9 9 9 8 6 5 3 3 3 4 10 12 14 14 14 12 12 12 11 11
17 17 15 15 14 13 12 11 10 9 9 9 9 10 9 9 9 9 10 10 10 10 9 9 9 8 7 5 4 3 3 4 1 8 13 14 14 13 12 12 12 11 10
13 14 14 15 15 13 12 11 11 10 9 9 9 9 9 9 9 10 11 10 9 9 8 8 8 7 6 5 4 3 4 5 3 9 12 13 14 13 12 11 11 11 10
10 10 11 12 12 12 13 12 11 10 9 9 9 9 9 8 9 9 10 10 9 8 8 7 7 7 6 6 5 5 5 5 5 9 12 15 14 12 11 11 11 11 10
10 10 9 9 9 10 10 11 10 9 10 8 9 9 7 6 7 9 11 10 9 8 8 8 7 7 7 7 7 7 5 4 6 10 13 16 14 12 11 10 11 11 10
10 8 9 9 6 7 6 7 6 7 8 7 8 8 7 7 8 9 8 8 8 8 7 8 8 7 7 5 6 6 5 2 6 11 13 15 14 12 11 10 10 11 10
9 8 9 8 6 6 5 4 4 5 5 5 7 8 7 4 4 5 5 6 7 5 4 5 4 5 4 3 2 1 0 3 6 11 13 15 13 12 11 10 10 10 10
9 8 9 8 7 5 3 1 3 4 5 6 7 6 6 4 3 4 3 4 4 4 4 3 2 2 2 2 2 2 1 3 6 9 11 13 13 12 12 11 11 10 10
9 9 9 9 7 5 3 1 1 3 5 6 6 7 6 5 4 3 3 2 3 3 3 2 2 2 1 1 1 1 2 3 5 9 11 11 12 12 12 12 12 11 11
9 9 9 9 8 6 4 3 2 3 4 4 4 6 6 6 5 3 3 2 3 3 3 2 1 2 2 2 2 2 2 3 3 7 10 10 11 12 13 13 13 12 12
10 9 8 8 9 7 4 2 1 2 3 4 5 5 5 7 6 3 2 2 4 4 3 2 2 2 2 2 2 2 2 3 4 6 7 9 10 10 12 14 13 13 13
10 10 7 6 8 7 6 3 2 2 2 2 4 5 5 5 5 3 2 2 4 3 2 4 3 2 1 2 2 3 3 3 3 5 6 8 9 11 12 14 15 15 14
11 10 8 7 7 6 5 3 2 2 2 2 2 5 6 5 5 4 3 4 4 2 2 1 2 2 1 3 3 2 2 3 3 3 4 5 8 10 12 13 13 13 14
11 10 9 8 8 6 4 4 3 3 3 3 3 6 6 6 6 4 2 3 3 3 3 4 3 3 3 3 1 1 2 2 2 2 2 2 3 7 9 11 11 10 11
12 10 10 9 8 7 5 4 3 3 3 4 2 5 7 6 6 5 3 3 3 2 3 2 2 2 3 3 2 1 1 2 1 2 2 2 2 2 3 8 9 9 9
12 12 10 9 9 8 6 5 3 2 1 2 3 3 4 6 6 4 4 4 2 3 3 3 4 4 3 3 2 2 2 1 1 2 1 1 2 1 1 2 6 9 9
12 12 9 9 9 8 7 6 6 5 4 3 3 3 4 4 4 5 4 3 2 2 2 4 4 3 3 3 3 3 3 2 2 1 1 0 1 1 1 1 1 4 8
11 11 10 9 8 8 7 6 5 4 3 3 3 4 4 3 3 4 4 3 3 2 3 3 1 3 3 4 3 2 2 2 3 2 2 1 0 0 1 1 1 2 4
11 11 11 10 8 8 7 7 6 5 3 2 2 3 3 3 3 3 3 3 3 2 2 2 2 3 3 3 3 3 2 3 3 3 3 3 2 1 1 1 1 1 1
Wind_Direction
109 107 100 92 89 92 92 94 96 97 95 95 93 91 90 92 94 94 95 98 101 103 104 104 103 103 101 100 98 98 98 99 102 104 106 106 107 109 113 116 110 103 109
114 111 103 96 92 92 93 94 95 96 97 96 95 94 94 95 97 97 97 98 100 103 105 107 104 105 105 104 104 104 107 110 111 115 114 111 111 111 107 105 103 110 113
115 115 108 99 96 94 95 96 96 95 97 99 97 96 96 97 99 100 101 101 102 103 105 107 108 109 109 109 110 113 119 122 124 127 123 115 115 110 103 102 107 113 115
118 117 110 106 101 97 96 96 97 96 98 101 100 99 99 99 101 102 103 105 106 108 107 106 107 109 111 114 118 122 128 134 140 143 133 124 120 112 110 111 114 115 116
110 109 111 110 105 102 100 99 98 98 99 102 101 101 101 101 104 105 105 106 106 107 107 107 106 107 110 114 120 128 136 149 157 153 123 113 112 119 117 116 116 118 119
116 113 115 114 111 108 105 102 102 102 103 104 104 104 103 103 105 106 106 107 108 109 108 107 108 108 111 116 124 133 146 166 171 140 122 119 119 125 123 121 120 120 123
115 117 121 120 118 115 112 109 108 107 106 106 105 105 107 106 104 105 109 108 110 113 113 112 111 110 114 121 131 145 160 179 183 131 119 116 123 129 126 124 123 124 126
119 120 125 126 125 123 120 117 115 113 113 115 113 112 112 112 110 111 114 112 111 114 118 118 117 115 118 127 142 167 199 232 157 125 117 116 126 129 129 129 130 129 130
123 128 134 136 134 132 129 126 123 120 121 124 124 124 123 121 119 118 121 116 115 117 120 121 121 122 128 140 160 194 238 271 135 127 120 120 129 132 133 134 135 136 136
119 127 138 143 142 144 138 135 132 130 131 135 136 136 134 131 131 131 129 123 124 126 128 130 130 134 144 163 188 222 263 293 195 114 114 128 134 135 138 141 141 142 141
115 123 134 136 144 145 141 140 144 143 146 148 151 150 149 149 143 143 131 132 133 137 142 148 151 156 165 183 206 231 261 257 134 110 117 132 138 141 142 146 147 146 148
134 129 133 130 139 143 136 143 154 157 155 168 157 161 169 157 136 128 134 140 147 153 159 173 176 180 191 192 203 225 245 223 120 117 125 140 143 146 149 153 153 154 157
135 129 133 124 125 119 122 145 148 146 147 162 152 158 158 147 136 135 145 154 166 174 181 176 192 204 206 196 189 203 225 171 111 116 136 145 149 153 157 160 160 162 164
134 133 127 118 107 93 107 124 136 137 146 146 151 163 157 158 146 143 151 167 174 181 176 175 192 195 180 168 184 207 141 94 105 117 141 150 155 159 162 164 166 169 172
140 135 118 110 102 95 85 140 141 132 135 144 148 165 159 157 147 144 161 179 173 169 172 170 177 152 147 167 190 169 92 90 114 122 141 157 160 166 171 174 176 179 182
141 138 128 128 126 127 141 217 113 132 135 138 157 157 157 143 137 142 155 177 165 160 145 158 169 148 195 185 202 176 153 138 137 139 149 162 169 174 180 184 187 188 191
146 140 140 148 148 157 172 196 167 156 143 139 143 145 151 140 146 162 162 180 158 150 144 169 185 174 203 196 198 195 176 171 164 154 159 167 175 183 187 190 192 194 197
149 147 166 168 154 164 174 190 208 154 135 143 151 151 153 144 166 185 174 165 165 176 174 186 224 213 202 198 195 218 188 164 178 174 176 178 177 180 188 195 194 196 200
151 155 169 157 154 165 168 179 202 137 128 152 158 153 157 163 175 194 159 151 196 198 193 211 185 199 200 213 210 207 208 193 190 194 183 184 179 173 174 189 196 199 203
156 161 166 164 162 165 163 173 208 167 156 176 171 153 161 183 188 202 183 177 209 196 192 193 169 216 229 227 243 218 212 198 189 196 201 187 184 184 180 179 189 202 206
160 161 166 172 166 173 175 180 185 182 192 185 181 166 177 198 192 203 206 183 208 205 199 196 194 206 224 224 222 252 262 203 185 194 194 193 185 186 178 168 178 188 197
164 167 170 175 173 181 180 179 189 187 204 185 181 165 185 195 196 196 190 212 211 207 210 217 198 232 243 223 186 186 294 308 282 236 191 192 187 151 157 174 176 181 183
170 174 178 177 178 185 177 179 189 176 235 189 174 174 195 199 202 212 188 215 222 217 202 210 214 220 232 258 225 181 204 234 285 294 245 211 147 150 179 156 177 184 188
174 173 170 174 179 180 184 194 193 195 203 196 182 174 193 203 201 198 204 211 229 248 213 219 210 212 219 243 248 224 208 183 190 263 288 272 118 166 197 221 184 176 179
173 170 169 170 174 178 189 198 204 209 207 196 177 173 187 200 217 208 196 201 216 235 240 245 204 215 225 242 246 240 233 213 212 208 240 243 247 224 186 197 93 91 169
169 168 166 166 173 178 189 198 199 207 212 207 189 178 194 202 215 211 194 194 204 216 234 235 230 228 233 253 268 258 227 216 209 210 224 224 221 242 321 16 57 73 122
Height
1522 1521 1522 1523 1523 1524 1525 1526 1527 1528 1529 1530 1531 1532 1533 1534 1535 1536 1538 1539 1540 1542 1543 1544 1546 1547 1548 1549 1551 1552 1553 1554 1556 1557 1558 1559 1560 1561 1562 1563 1564 1564 1565
1522 1523 1524 1525 1525 1526 1528 1528 1530 1531 1531 1532 1534 1535 1536 1537 1538 1539 1540 1541 1542 1544 1545 1547 1548 1549 1550 1551 1552 1553 1555 1556 1557 1558 1559 1560 1562 1563 1564 1565 1566 1566 1567
1524 1525 1526 1527 1528 1529 1530 1531 1532 1533 1534 1535 1536 1537 1538 1539 1540 1541 1542 1543 1544 1546 1547 1548 1550 1551 1552 1553 1554 1555 1556 1557 1559 1560 1561 1562 1563 1564 1565 1566 1567 1568 1569
1526 1527 1528 1529 1530 1531 1532 1533 1534 1535 1536 1537 1538 1539 1540 1541 1542 1543 1544 1545 1546 1548 1549 1550 1551 1553 1553 1555 1556 1557 1558 1559 1560 1561 1563 1564 1564 1566 1567 1568 1569 1570 1571
1528 1528 1530 1530 1532 1533 1534 1535 1536 1537 1538 1539 1540 1541 1542 1543 1544 1545 1546 1547 1548 1549 1550 1552 1553 1554 1555 1556 1557 1558 1560 1561 1562 1563 1564 1565 1566 1567 1568 1569 1570 1571 1572
1529 1530 1531 1532 1533 1535 1536 1537 1538 1539 1540 1541 1542 1543 1544 1545 1546 1547 1547 1549 1550 1551 1552 1553 1554 1555 1556 1557 1559 1560 1561 1562 1563 1565 1566 1567 1568 1569 1569 1570 1571 1572 1574
1531 1531 1533 1534 1535 1536 1537 1538 1540 1541 1542 1543 1544 1545 1546 1547 1547 1548 1549 1550 1551 1552 1553 1554 1555 1556 1558 1559 1560 1561 1563 1563 1565 1566 1567 1568 1569 1570 1571 1572 1573 1574 1575
1532 1533 1534 1535 1537 1538 1539 1540 1541 1542 1543 1544 1545 1546 1547 1548 1549 1550 1551 1552 1553 1554 1555 1556 1557 1558 1559 1560 1562 1563 1564 1565 1567 1568 1569 1569 1570 1571 1572 1573 1574 1575 1576
1534 1534 1536 1537 1538 1539 1540 1541 1542 1544 1545 1546 1547 1548 1549 1550 1551 1551 1552 1553 1554 1555 1556 1557 1558 1559 1561 1562 1563 1564 1565 1566 1568 1569 1569 1570 1571 1572 1573 1574 1575 1576 1577
1537 1537 1538 1539 1540 1541 1542 1543 1544 1545 1546 1547 1548 1549 1550 1551 1552 1553 1554 1555 1556 1557 1558 1559 1560 1561 1562 1563 1564 1566 1567 1568 1570 1570 1570 1571 1572 1573 1574 1574 1575 1577 1578
1538 1539 1540 1541 1542 1543 1544 1545 1545 1546 1547 1548 1549 1551 1552 1553 1554 1555 1556 1556 1557 1558 1559 1561 1562 1563 1564 1565 1566 1567 1568 1569 1570 1570 1571 1572 1572 1573 1574 1575 1576 1577 1578
1539 1541 1542 1543 1544 1545 1546 1546 1547 1548 1548 1550 1551 1552 1554 1555 1556 1557 1557 1558 1559 1560 1561 1562 1564 1565 1566 1567 1568 1569 1569 1569 1571 1571 1571 1572 1573 1574 1575 1575 1576 1577 1579
1539 1541 1543 1544 1545 1547 1547 1548 1549 1550 1550 1551 1553 1554 1555 1556 1557 1558 1558 1559 1560 1561 1562 1564 1565 1565 1566 1568 1569 1570 1570 1571 1572 1571 1572 1572 1573 1574 1575 1576 1576 1577 1579
1540 1542 1543 1544 1546 1547 1548 1549 1551 1551 1552 1553 1553 1555 1556 1557 1558 1559 1560 1560 1561 1562 1564 1565 1566 1567 1568 1569 1570 1570 1571 1572 1572 1572 1572 1573 1574 1574 1575 1575 1576 1577 1578
1539 1541 1543 1544 1545 1546 1548 1549 1551 1552 1553 1553 1554 1555 1557 1558 1559 1560 1560 1561 1562 1564 1565 1566 1567 1568 1569 1570 1570 1571 1572 1572 1572 1572 1572 1573 1574 1574 1575 1575 1576 1577 1578
1539 1541 1542 1543 1544 1545 1547 1549 1550 1552 1553 1554 1555 1556 1557 1558 1559 1560 1561 1562 1563 1564 1565 1566 1567 1568 1569 1569 1570 1571 1572 1572 1573 1572 1572 1573 1573 1574 1574 1575 1576 1576 1577
1538 1540 1541 1543 1544 1545 1547 1548 1551 1552 1553 1554 1555 1556 1557 1558 1559 1560 1561 1562 1563 1564 1565 1566 1567 1568 1568 1569 1570 1571 1571 1572 1572 1572 1572 1572 1573 1573 1574 1574 1575 1576 1576
1537 1539 1541 1543 1543 1545 1546 1547 1550 1552 1553 1554 1555 1555 1557 1557 1559 1560 1561 1562 1563 1564 1565 1566 1567 1567 1568 1569 1569 1570 1570 1571 1571 1572 1572 1572 1572 1572 1573 1573 1574 1575 1575
1535 1537 1540 1542 1543 1544 1546 1547 1549 1551 1552 1553 1554 1555 1556 1557 1558 1559 1560 1561 1562 1563 1564 1565 1566 1567 1567 1568 1568 1569 1569 1570 1570 1571 1571 1571 1571 1571 1571 1572 1573 1573 1574
1534 1536 1538 1540 1542 1543 1545 1546 1548 1550 1551 1552 1553 1554 1555 1556 1557 1558 1559 1560 1561 1563 1563 1564 1565 1565 1566 1566 1567 1568 1568 1568 1569 1569 1569 1570 1570 1570 1570 1570 1571 1571 1572
1533 1535 1537 1539 1540 1542 1544 1545 1547 1548 1550 1551 1552 1553 1554 1555 1556 1557 1558 1559 1560 1561 1562 1563 1563 1564 1564 1565 1566 1566 1566 1566 1566 1566 1567 1568 1568 1569 1569 1569 1569 1569 1570
1531 1533 1535 1537 1539 1541 1543 1544 1546 1548 1549 1550 1551 1552 1553 1554 1555 1556 1557 1558 1559 1560 1560 1561 1561 1562 1563 1564 1564 1564 1565 1566 1564 1565 1565 1565 1566 1567 1567 1567 1567 1567 1567
1530 1531 1534 1535 1537 1539 1541 1543 1545 1547 1548 1549 1550 1551 1552 1553 1554 1555 1555 1556 1557 1558 1558 1559 1560 1560 1561 1562 1563 1563 1563 1563 1563 1563 1563 1563 1564 1564 1565 1565 1565 1565 1565
1528 1530 1532 1534 1535 1537 1540 1542 1543 1545 1546 1548 1549 1549 1551 1552 1552 1553 1554 1555 1555 1556 1556 1557 1557 1558 1559 1559 1560 1561 1562 1561 1561 1561 1562 1562 1562 1562 1562 1563 1563 1563 1563
1527 1529 1530 1532 1534 1535 1537 1539 1541 1543 1545 1546 1547 1548 1549 1550 1550 1551 1552 1553 1553 1554 1554 1555 1555 1556 1556 1557 1557 1558 1558 1559 1559 1560 1559 1559 1560 1559 1560 1560 1560 1560 1560
1525 1527 1529 1530 1532 1534 1536 1537 1539 1541 1542 1544 1546 1546 1547 1548 1549 1550 1550 1551 1551 1552 1552 1552 1553 1553 1554 1554 1554 1555 1555 1556 1556 1556 1556 1556 1556 1556 1556 1557 1556 1557 1557